Location: Anglesey
(53.1800°N, 4.2200°W)
Time: 13:01:58
(UTC+01:00)

Envisat - Pass Details

Date: 17 October 2017
Orbit: 764 x 766 km, 98.2° (Epoch: 22 October)

Event Time Altitude Azimuth Distance (km) Brightness Sun altitude
Exits shadow 20:08:39 28° 122° (ESE) 1,413 3.9 -17.6°
Maximum altitude 20:10:56 47° 66° (ENE) 1,018 3.3 -17.9°
Drops below altitude 10° 20:15:48 10° 354° (N) 2,315 5.7 -18.6°
Sets 20:18:10 0° 349° (N) 3,246 6.5 -19.0°
